EHI
0 0 0 0 0 0 0 0 0 0 0 0 0 0 0 1 2 2 1 1 1 0 0 0 1 1 2 2 2 1 1 2 3 4 4 3 1 1 2 3 3 3 3 3
0 0 0 0 0 0 0 0 0 0 0 0 0 0 0 1 2 2 2 2 2 1 0 1 2 3 4 4 4 4 4 4 4 4 4 4 4 3 4 4 3 3 3 3
0 0 0 0 0 0 0 0 0 0 0 0 0 0 0 0 1 1 1 2 3 2 2 2 4 5 6 6 6 6 6 6 5 5 6 8 8 8 7 5 4 3 3 2
0 0 0 0 0 0 0 0 0 0 0 0 0 0 0 0 0 0 0 1 2 3 4 5 7 8 10 10 8 7 7 6 6 9 12 13 12 10 8 6 4 3 2 1
0 0 0 0 0 0 0 0 0 0 0 0 0 0 0 0 0 0 0 0 1 3 5 7 9 11 13 14 12 9 8 7 9 15 20 18 15 12 8 5 3 2 2 1
0 0 0 0 0 0 0 0 0 0 0 0 0 0 0 0 0 0 0 0 0 2 5 8 10 13 15 16 15 11 9 9 12 19 24 23 18 14 10 5 2 1 1 1
0 0 0 0 0 0 0 0 0 0 0 0 0 0 0 0 0 0 0 0 1 2 5 9 11 14 17 17 16 14 13 14 17 22 27 27 23 18 14 9 4 2 2 3
0 0 0 0 0 0 0 0 0 0 0 0 0 0 0 0 0 0 0 1 2 5 7 9 11 13 17 19 19 19 20 20 21 25 29 29 26 23 19 14 9 6 6 6
0 0 0 0 0 0 0 0 0 0 0 0 0 0 0 0 0 1 1 2 4 7 8 8 9 11 15 18 19 21 24 24 23 25 28 27 25 23 21 18 14 10 8 7
0 0 0 0 0 0 0 0 0 0 0 0 0 0 1 1 2 2 3 4 7 9 9 8 8 9 11 14 16 18 21 22 22 24 26 25 22 20 20 18 15 12 10 8
0 0 0 0 0 0 0 0 0 0 0 0 0 0 1 3 4 4 6 8 10 10 9 8 8 8 9 14 16 16 18 22 24 27 28 26 21 18 18 17 16 14 11 9
0 0 0 0 0 0 0 0 0 0 0 0 0 1 3 4 5 7 9 10 11 10 8 7 7 8 11 16 18 18 19 24 27 29 30 29 23 19 18 18 18 17 14 11
0 0 0 0 0 0 0 0 0 0 0 0 1 3 4 5 6 9 11 10 11 11 9 7 8 9 13 18 20 19 21 26 30 32 31 30 25 22 20 18 19 18 14 9
0 0 0 0 0 0 0 0 0 0 0 1 2 4 5 6 7 9 10 12 14 16 13 11 12 13 15 18 20 21 23 28 33 35 34 30 26 23 20 17 16 16 12 7
0 0 0 0 0 0 0 0 0 0 1 2 3 4 5 7 9 10 12 15 19 18 16 15 15 15 15 18 20 22 24 28 33 37 35 30 26 23 19 16 14 14 12 8
0 0 0 0 0 0 0 0 0 0 1 2 3 4 6 9 11 11 14 17 18 17 16 16 17 16 16 19 22 24 25 27 31 34 32 28 24 22 19 16 15 15 13 10
0 0 0 0 0 0 0 0 0 0 1 3 4 6 9 13 14 14 15 17 16 16 17 18 17 17 17 20 23 25 25 26 29 30 29 26 22 20 17 16 16 15 11 9
0 0 0 0 0 0 0 0 0 0 1 3 7 11 16 17 16 15 15 16 15 16 18 18 17 17 18 20 23 26 27 26 26 26 25 23 21 18 16 16 16 14 10 8
0 0 0 0 0 0 0 0 0 0 0 3 9 16 19 18 16 15 15 14 13 14 15 15 14 16 19 21 23 26 27 25 24 21 20 19 17 17 17 17 16 14 11 10
0 0 0 0 0 0 0 0 0 0 0 3 8 13 16 16 15 14 15 14 13 13 14 13 12 14 18 20 21 23 23 21 19 17 14 14 14 14 15 16 15 14 12 12
0 0 0 0 0 0 0 0 0 0 0 3 6 10 11 12 12 14 15 16 15 16 16 13 11 12 14 16 17 18 17 15 14 12 10 10 10 11 13 14 14 13 11 11
0 0 0 0 0 0 1 2 1 0 1 3 6 9 11 13 14 14 16 16 17 18 17 14 10 10 12 13 13 12 12 10 9 7 6 6 7 8 11 13 13 11 10 9
0 0 1 1 1 1 2 3 3 2 3 6 9 12 15 17 17 16 17 16 15 15 14 12 10 10 10 10 9 9 9 8 5 3 2 2 3 6 9 11 11 10 8 7
1 1 2 3 3 3 3 3 5 5 5 7 11 14 16 17 16 16 16 13 10 8 8 9 9 9 8 8 7 8 9 8 5 2 0 0 1 4 7 8 8 7 6 6
2 3 3 3 4 3 2 2 3 5 6 8 10 12 13 13 13 12 11 8 6 4 4 5 6 7 7 7 6 7 8 8 5 2 1 0 0 2 5 5 5 4 4 4
3 3 3 2 3 2 1 0 1 3 6 8 10 10 10 10 9 8 6 5 4 3 2 3 5 6 6 6 6 7 7 7 5 3 2 1 1 2 4 4 2 1 1 2
Wind_Speed
3 6 4 6 5 5 6 6 4 2 2 4 3 2 4 6 5 6 6 5 6 6 5 4 5 5 4 3 3 3 3 3 3 2 1 1 0 0 1 0 1 1 1 1
5 1 4 5 5 6 6 5 2 1 2 3 3 1 3 6 8 7 7 8 8 6 4 5 5 5 5 5 4 4 4 3 3 2 2 1 1 0 0 1 1 1 1 1
5 4 4 6 6 6 3 5 5 3 3 4 3 2 2 4 5 5 5 6 6 8 7 6 6 5 5 6 6 5 4 4 3 3 2 2 2 1 1 1 1 1 0 0
2 2 4 5 4 6 2 4 6 5 4 1 2 2 4 4 5 8 8 7 8 7 7 7 6 6 7 7 5 5 5 4 3 4 3 3 2 1 1 0 0 1 1 1
3 3 5 5 5 6 4 3 5 4 4 2 2 1 6 1 5 10 11 10 9 8 8 8 8 8 7 6 5 5 4 4 4 4 4 3 2 2 0 0 0 1 1 1
2 2 3 4 3 6 7 8 7 6 5 0 3 3 6 5 8 7 9 10 10 9 8 7 7 6 5 5 5 5 5 4 4 4 4 4 4 2 1 0 1 1 1 2
1 1 1 3 5 3 5 7 4 4 3 5 2 3 9 7 7 8 9 9 9 8 8 7 7 7 7 6 6 5 5 4 4 4 4 4 4 4 3 2 1 1 1 1
4 3 3 3 6 7 5 9 9 6 5 4 0 5 8 5 4 4 4 4 5 6 7 8 8 8 8 7 7 6 6 5 4 5 4 3 3 3 2 2 2 2 2 2
6 5 3 2 3 9 7 4 6 8 3 1 4 6 7 2 2 0 2 4 5 6 7 7 7 7 7 6 6 6 6 5 4 5 4 3 3 3 3 2 2 1 1 1
8 3 2 1 5 5 6 9 6 7 6 2 3 4 5 4 3 2 2 4 5 5 5 6 5 6 6 6 5 4 5 4 3 3 4 4 3 4 3 2 2 2 1 1
5 5 1 1 4 6 5 5 6 5 5 7 3 7 7 7 6 4 4 4 4 5 5 4 4 5 5 5 5 5 4 3 3 3 3 2 2 2 2 2 2 2 1 1
4 6 2 3 2 3 5 7 8 7 4 4 5 8 4 4 4 4 3 2 3 3 4 3 4 4 4 5 4 4 4 4 4 3 3 3 2 2 2 2 2 2 2 1
6 7 4 3 4 1 3 3 4 7 6 5 5 7 3 1 1 2 3 3 3 3 4 4 4 4 4 4 4 4 4 4 3 4 4 3 3 2 2 2 2 2 2 1
7 6 7 10 8 5 4 3 5 7 5 5 7 6 3 2 3 3 3 3 4 4 4 4 4 3 3 3 3 3 3 3 4 4 4 3 3 2 2 2 2 2 2 2
6 5 3 3 3 5 4 6 6 5 8 8 8 8 8 7 7 5 4 4 4 4 4 4 4 3 3 3 2 2 2 3 4 4 4 3 2 2 2 2 2 2 2 2
4 5 3 1 1 3 2 3 6 4 4 4 3 6 5 3 3 4 5 6 6 5 4 4 4 4 4 3 3 3 3 3 4 4 3 3 3 2 2 2 3 3 3 3
3 5 5 1 1 3 1 3 5 4 3 6 7 7 3 4 6 7 7 7 7 7 6 5 4 4 3 3 3 3 3 3 4 4 4 3 3 3 2 3 3 3 3 3
7 6 4 3 3 4 6 1 2 4 1 1 2 3 5 6 4 3 4 6 6 5 5 5 4 3 3 3 3 4 5 4 4 4 3 3 3 3 3 3 3 2 2 3
4 8 6 4 4 2 3 0 2 3 1 0 2 3 3 5 5 3 2 4 4 4 5 4 4 4 4 4 4 6 6 5 5 4 3 3 3 4 4 4 3 2 2 2
6 6 7 5 4 5 5 2 2 3 2 1 3 6 6 6 4 3 2 4 4 4 4 5 5 5 5 3 4 6 5 5 4 3 3 3 3 4 4 3 3 2 3 2
4 5 5 4 3 5 4 4 1 4 6 2 3 5 6 4 4 3 4 4 4 5 5 5 6 5 3 4 5 5 4 3 3 3 3 4 3 3 3 3 3 3 3 4
4 4 4 4 3 5 3 2 4 5 2 2 3 4 5 4 5 6 6 6 5 5 5 5 5 4 3 4 5 5 3 2 3 4 4 4 3 3 3 4 4 3 4 5
2 4 5 5 6 4 2 2 2 2 2 2 3 3 5 6 6 6 5 5 5 5 5 5 5 5 4 3 4 5 3 3 4 5 4 4 4 4 3 4 4 3 3 3
1 1 3 1 2 2 2 1 1 1 2 3 5 5 6 6 6 6 6 4 4 4 4 5 5 5 3 3 3 4 4 4 5 5 4 4 4 4 4 3 3 3 2 2
2 1 2 0 2 1 2 2 2 3 4 6 6 5 6 8 7 6 5 4 4 4 3 4 4 4 3 3 4 4 4 5 6 5 4 4 4 4 4 3 3 2 1 1
2 4 4 5 5 3 3 1 1 3 4 6 6 5 5 6 6 5 5 4 4 4 3 4 4 4 3 4 4 3 3 5 6 5 4 3 3 3 3 3 3 6 4 5
Wind_Direction
50 84 152 185 174 154 142 137 150 200 168 135 153 171 191 184 187 198 201 203 205 215 215 198 194 184 172 172 174 175 164 154 130 121 126 114 104 348 16 12 39 43 52 87
55 180 204 157 136 121 126 129 146 69 109 128 136 196 198 197 205 206 209 212 212 215 215 205 194 183 182 187 190 183 180 169 162 155 145 140 144 139 212 360 27 35 54 111
156 209 157 135 136 127 143 162 171 157 69 58 94 354 219 222 218 225 224 218 215 211 212 208 200 195 190 197 195 193 189 180 173 154 115 91 66 41 31 17 8 2 14 162
175 205 148 137 156 141 188 198 154 137 110 356 107 261 272 223 223 229 229 220 217 214 207 204 201 200 202 206 195 190 184 177 172 157 152 154 164 196 220 203 297 324 304 261
202 171 153 164 181 149 168 124 117 116 118 80 34 149 283 215 232 238 230 224 218 211 203 202 202 204 206 200 191 186 175 177 173 167 172 170 182 198 185 68 329 316 321 309
212 214 177 175 130 135 128 81 61 53 72 91 226 170 270 226 219 232 227 220 213 208 201 202 199 193 196 189 185 179 174 187 181 176 178 179 187 181 166 261 295 318 328 335
5 328 249 138 106 90 107 96 56 17 19 250 230 185 249 243 226 219 219 215 209 199 192 195 192 190 191 188 187 181 179 193 188 183 191 194 194 183 191 210 228 256 302 316
150 250 231 180 163 162 160 136 152 179 203 262 298 227 255 265 258 235 217 197 188 188 186 194 195 193 194 192 186 182 187 198 189 189 198 197 193 189 202 202 199 218 239 259
160 227 270 206 155 133 132 148 150 126 132 107 276 281 298 295 322 304 182 170 183 186 186 196 191 185 185 185 186 186 189 196 194 196 193 191 192 194 203 200 192 207 231 240
147 177 262 170 82 40 134 141 108 119 140 207 280 268 248 251 256 264 215 199 196 184 182 186 180 177 179 181 176 170 178 192 196 191 195 196 196 203 200 182 190 201 205 187
130 137 294 84 164 165 114 98 106 113 146 151 210 263 230 213 211 210 220 206 184 176 171 175 170 166 162 153 155 165 169 171 179 186 185 176 189 192 180 182 201 201 179 159
135 120 176 251 271 169 147 155 146 147 183 160 164 261 278 206 202 188 197 186 158 157 149 146 139 133 136 146 156 166 170 175 184 175 166 163 162 158 170 184 191 176 163 158
137 117 102 352 346 42 105 133 136 120 116 145 159 255 317 86 159 172 167 150 128 123 120 115 116 127 134 144 157 167 172 176 170 157 153 151 151 150 158 169 171 157 149 133
117 116 158 185 203 179 156 155 150 126 139 177 209 228 258 218 200 191 169 149 134 127 123 120 120 116 119 130 146 157 162 157 148 142 146 152 159 163 162 149 135 140 139 123
101 124 167 205 195 161 163 174 174 171 173 174 211 211 227 210 200 187 168 144 128 120 115 123 121 112 109 105 100 112 131 141 142 139 144 152 144 136 126 118 119 118 119 125
84 119 114 52 204 153 141 176 175 179 167 182 168 234 236 193 159 156 158 147 143 140 139 139 128 123 127 128 118 100 100 122 132 136 135 122 110 107 107 116 116 110 108 104
99 113 106 154 319 89 218 213 183 178 185 170 193 220 169 161 182 177 171 162 159 158 155 147 142 140 137 133 127 120 108 107 115 119 114 108 102 98 100 118 114 113 105 97
124 105 110 118 106 186 238 267 161 148 163 215 212 193 180 179 170 144 151 156 156 158 153 147 142 134 129 122 114 108 97 102 108 108 108 107 111 111 108 108 109 108 106 105
128 125 110 115 145 238 292 15 127 149 271 287 164 146 128 118 89 54 95 131 150 153 146 142 134 130 121 117 118 114 107 106 105 106 110 114 120 119 117 119 118 113 107 99
52 86 106 115 135 205 240 289 297 124 276 297 148 152 147 127 133 212 152 119 117 118 128 128 118 109 111 114 118 117 117 116 119 119 113 107 111 116 119 121 112 100 105 107
52 55 94 125 161 252 270 303 91 151 235 230 167 164 158 166 179 154 120 104 111 112 114 116 113 110 115 121 118 116 117 125 123 114 110 100 100 116 118 108 105 107 103 95
145 130 141 130 149 247 303 70 160 212 238 154 147 149 132 117 104 106 106 99 98 103 106 112 112 102 92 108 122 122 120 113 101 103 104 97 87 94 105 110 105 106 113 109
160 178 173 174 196 236 257 212 228 178 160 151 132 120 115 114 109 104 101 98 97 107 112 109 109 100 88 99 120 125 124 111 99 91 87 88 85 77 91 108 113 110 111 114
308 98 118 139 268 286 294 311 43 128 143 132 123 120 114 111 111 105 101 97 98 100 110 108 107 106 96 84 93 106 108 102 98 96 88 85 88 82 76 80 89 102 114 120
247 113 106 139 282 7 351 1 35 67 92 101 95 98 112 112 109 109 106 102 105 103 101 110 120 121 112 97 84 88 100 109 107 103 97 92 91 96 86 77 67 86 96 147
223 183 168 206 217 185 235 299 58 90 103 114 106 91 92 110 116 110 110 108 107 109 108 111 113 114 112 110 104 99 106 117 119 113 107 109 110 106 107 107 81 55 63 66